Craig, CO

10:15 AM MDT on March 29, 2017 (GMT -0600)
Craig-Moffat

Weather History for KCAG - July, 2013

Change the Weather History Date:

Thursday, July 25, 2013

  Actual Average Record
Temperature  
Mean Temperature 69 °F 68 °F  
Max Temperature 85 °F 89 °F 95 °F (2016)
Min Temperature 53 °F 47 °F 39 °F (2004)
Degree Days  
Heating Degree Days 0 0  
Month to date heating degree days 0 20  
Since 1 June heating degree days 88 195  
Since 1 July heating degree days 0 20  
Cooling Degree Days 4 3  
Month to date cooling degree days 166 58  
Year to date cooling degree days 210 68  
Since 1 June cooling degree days 210 68  
Growing Degree Days 20 (Base 50)    
Moisture  
Dew Point 47 °F    
Average Humidity 55    
Maximum Humidity 86    
Minimum Humidity 23    
Precipitation  
Precipitation T in 0.04 in 0.43 in (1998)
Month to date precipitation 0.05 0.86  
Year to date precipitation 5.30 8.37  
Sea Level Pressure  
Sea Level Pressure 30.04 in    
Wind  
Wind Speed 5 mph (ENE)    
Max Wind Speed 23 mph    
Max Gust Speed 30 mph    
Visibility 10 miles    
Events Rain , Thunderstorm    
T = Trace of Precipitation, MM = Missing Value Source: NWS Daily Summary

Daily Weather History Graph

Daily Weather History Graph

Search for Another Location

Airport or City:

Trip Planner

Search our weather history database for the weather conditions in past years. The results will help you decide how hot, cold, wet, or windy it might be!

Date:

Astronomy

Jul. 25, 2013 Rise Set
Actual Time 6:01 AM MDT 8:31 PM MDT
Civil Twilight 5:29 AM MDT 9:02 PM MDT
Nautical Twilight 4:50 AM MDT 9:41 PM MDT
Astronomical Twilight 4:07 AM MDT 10:24 PM MDT
Moon 10:12 PM MDT (7/25) 9:34 AM MDT (7/25)
Length of Visible Light 15h 32m
Length of Day
14h 30m
Waning Gibbous, 88% of the Moon is Illuminated
Jul 25
Waning Gibbous
Jul 29
Last Quarter
Aug 6
New
Aug 14
First Quarter
Aug 20
Full

Hourly Weather History & Observations

Time (MDT) Temp. Dew Point Humidity Pressure Visibility Wind Dir Wind Speed Gust Speed Precip Events Conditions
12:53 AM 66.0 °F 52.0 °F 60% 29.93 in 10.0 mi ESE 3.5 mph - 0.00 in Rain Light Rain
1:53 AM 63.0 °F 55.0 °F 75% 29.95 in 10.0 mi ESE 4.6 mph - 0.00 in   Overcast
2:53 AM 61.0 °F 54.0 °F 78% 29.96 in 10.0 mi Calm Calm - N/A   Mostly Cloudy
3:53 AM 61.0 °F 54.0 °F 78% 29.97 in 10.0 mi Calm Calm - N/A   Overcast
4:53 AM 59.0 °F 54.0 °F 83% 29.98 in 10.0 mi Calm Calm - N/A   Mostly Cloudy
5:53 AM 55.9 °F 52.0 °F 87% 30.01 in 10.0 mi Calm Calm - N/A   Clear
6:53 AM 57.0 °F 52.0 °F 83% 30.03 in 10.0 mi Calm Calm - N/A   Clear
7:53 AM 62.1 °F 54.0 °F 75% 30.04 in 10.0 mi Calm Calm - N/A   Clear
8:53 AM 66.9 °F 53.1 °F 61% 30.05 in 10.0 mi ENE 8.1 mph - N/A   Clear
9:53 AM 72.0 °F 54.0 °F 53% 30.04 in 10.0 mi NE 4.6 mph - N/A   Clear
10:53 AM 75.9 °F 51.1 °F 42% 30.04 in 10.0 mi NNE 5.8 mph - N/A   Clear
11:53 AM 78.1 °F 46.0 °F 32% 30.04 in 10.0 mi Calm Calm - N/A   Clear
12:53 PM 81.0 °F 45.0 °F 28% 30.01 in 10.0 mi Calm Calm - N/A   Clear
1:53 PM 82.9 °F 44.1 °F 25% 29.99 in 10.0 mi Calm Calm - N/A   Clear
2:37 PM 84.2 °F 39.2 °F 20% 30.22 in 10.0 mi Calm Calm - N/A Thunderstorm Clear
2:53 PM 82.9 °F 39.9 °F 22% 29.99 in 10.0 mi NW 3.5 mph - N/A Thunderstorm Partly Cloudy
3:15 PM 82.4 °F 42.8 °F 25% 30.23 in 10.0 mi NNE 6.9 mph - N/A   Partly Cloudy
3:53 PM 78.1 °F 43.0 °F 29% 30.01 in 10.0 mi North 18.4 mph 25.3 mph N/A   Scattered Clouds
4:53 PM 82.9 °F 44.1 °F 25% 30.01 in 10.0 mi North 12.7 mph - N/A   Clear
5:53 PM 81.0 °F 39.0 °F 22% 30.03 in 10.0 mi ENE 12.7 mph 25.3 mph N/A   Mostly Cloudy
6:53 PM 73.9 °F 44.1 °F 34% 30.06 in 10.0 mi ESE 15.0 mph 24.2 mph 0.00 in   Mostly Cloudy
7:53 PM 73.0 °F 44.1 °F 35% 30.06 in 10.0 mi East 12.7 mph - N/A   Clear
8:53 PM 70.0 °F 44.1 °F 39% 30.08 in 10.0 mi East 8.1 mph - N/A   Clear
9:53 PM 66.0 °F 44.1 °F 45% 30.10 in 10.0 mi East 4.6 mph - N/A   Clear
10:53 PM 66.9 °F 44.1 °F 44% 30.09 in 10.0 mi East 5.8 mph - N/A   Clear
11:53 PM 64.0 °F 45.0 °F 50% 30.10 in 10.0 mi Calm Calm - N/A   Clear